This is the latest recevied weather packets stored in our database for station/object DB0HOL-4. If no packets are shown the sender has not sent any weather packets the latest 10 day(s).
| Time | Temp. | Humidity | Pressure | Rain* | Wind** | Luminosity | Snow |
|---|---|---|---|---|---|---|---|
| 1777647397 | 18.89° C | 48% | 1024 hPa | 0 mm | - | 502 W/m² | - |
| 1777645598 | 18.33° C | 46% | 1024.3 hPa | 0 mm | - | 159 W/m² | - |
| 1777643798 | 18.33° C | 48% | 1024.3 hPa | 0 mm | - | 584 W/m² | - |
| 1777641998 | 18.33° C | 47% | 1025 hPa | 0 mm | - | 572 W/m² | - |
| 1777640197 | 17.22° C | 50% | 1025.3 hPa | 0 mm | - | 622 W/m² | - |
| 1777638398 | 17.22° C | 54% | 1026 hPa | 0 mm | - | 622 W/m² | - |
| 1777636600 | 16.67° C | 50% | 1026.4 hPa | 0 mm | - | 636 W/m² | - |
| 1777634797 | 16.11° C | 54% | 1026.4 hPa | 0 mm | - | 634 W/m² | - |
| 1777632997 | 15.56° C | 52% | 1026.7 hPa | 0 mm | - | 693 W/m² | - |
| 1777631197 | 15° C | 53% | 1027 hPa | 0 mm | - | 671 W/m² | - |
| 1777629397 | 15° C | 56% | 1027 hPa | 0 mm | - | 655 W/m² | - |
| 1777627597 | 13.89° C | 55% | 1027.4 hPa | 0 mm | - | 599 W/m² | - |
| 1777625797 | 13.33° C | 56% | 1027.7 hPa | 0 mm | - | 552 W/m² | - |
| 1777623997 | 12.78° C | 59% | 1027.7 hPa | 0 mm | - | 767 W/m² | - |
| 1777622197 | 12.22° C | 60% | 1027.7 hPa | 0 mm | - | 554 W/m² | - |
| 1777620397 | 11.11° C | 59% | 1027.7 hPa | 0 mm | - | 136 W/m² | - |
| 1777618597 | 11.11° C | 60% | 1027.7 hPa | 0 mm | - | 147 W/m² | - |
| 1777616797 | 10° C | 65% | 1027.4 hPa | 0 mm | - | 533 W/m² | - |
| 1777614997 | 9.44° C | 62% | 1027.4 hPa | 0 mm | - | 394 W/m² | - |
| 1777613197 | 8.89° C | 63% | 1026.7 hPa | 0 mm | - | 251 W/m² | - |
| 1777611397 | 8.33° C | 64% | 1026.7 hPa | 0 mm | - | 116 W/m² | - |
| 1777609597 | 8.33° C | 63% | 1027 hPa | 0 mm | - | 4 W/m² | - |
| 1777607798 | 8.89° C | 62% | 1026.7 hPa | 0 mm | - | 0 W/m² | - |
| 1777605997 | 8.89° C | 62% | 1027 hPa | 0 mm | - | 0 W/m² | - |
| 1777604196 | 9.44° C | 60% | 1027.4 hPa | 0 mm | - | 0 W/m² | - |
* Rain latest hour (hover to see other rain measurements)
** Current wind speed in m/s (hover to see current wind gust speed)